{"data":{"norad_id":64886,"epoch":"2026-05-25T04:44:34.569312Z","epoch_age_seconds":61196,"freshness":"FRESH","line1":"1 64886U 25155L   26145.19762233  .00031794  00000+0  79360-3 0  9992","line2":"2 64886  97.4453 115.6641 0004271 222.5381 137.5534 15.40111160 77391","mean_motion":15.4011116,"eccentricity":0.0004271,"inclination_deg":97.4453,"raan_deg":115.6641,"arg_perigee_deg":222.5381,"mean_anomaly_deg":137.5534,"bstar":0.0007936,"rev_number":7739,"period_min":93.499744524934,"perigee_km":442.86645137202,"apogee_km":448.69544208211,"semimajor_km":6823.9179467271,"source":"CELESTRAK","updated_at":"2026-05-25T13:38:04.872587Z"}}